Regional Weather Roundup
Issued by NWS

Home | Current Version | Previous Version | Text Only | Print | Product List | Glossary On
Versions: 1 2 3 4 5 6 7 8 9 10 11 12 13 14 15 16 17 18 19 20 21 22 23 24 25 26 27 28 29 30 31 32 33 34 35 36 37 38 39 40 41 42 43 44 45 46 47 48 49 50
000
ASHW40 PHFO 230810
RWRHI

WEATHER ROUNDUP FOR HAWAII
NATIONAL WEATHER SERVICE HONOLULU HI
1000 PM HST TUE JUL 22 2014

THIS IS AN AUTOMATED REPORT THAT HAS NOT BEEN QUALITY CONTROLLED.

NOTE..."FAIR" INDICATES FEW OR NO CLOUDS BELOW 12,000 FEET WITH NO
SIGNIFICANT WEATHER AND/OR OBSTRUCTIONS TO VISIBILITY.

* - THESE SITES REPORT LIMITED FIELDS

HIZ001>004-230900-
KAUAI-NIIHAU-

CITY           SKY/WX    TMP DP  RH WIND       PRES   REMARKS
LIHUE APT      CLOUDY    79  74  84 E12       30.08R
PORT ALLEN*      N/A     79 N/A N/A E13         N/A
POIPU*           N/A     79 N/A N/A NE7G13      N/A
PRINCEVILLE*   NOT AVBL
KOKOLE POINT*  NOT AVBL
MOLOAA DAIRY*  NOT AVBL
WAIMEA HTS*    NOT AVBL
PUU OPAE*      NOT AVBL
PUU LUA*       NOT AVBL
MAKAHA RIDGE*  NOT AVBL
$$

HIZ005>011-230900-
OAHU-

CITY           SKY/WX    TMP DP  RH WIND       PRES   REMARKS
HONOLULU       CLOUDY    80  70  71 NE10      30.06R
KALAELOA       PTCLDY    79  70  74 E6        30.07R
KANEOHE MCB    MOCLDY    75  69  81 E6        30.08R
WHEELER FIELD  MOCLDY    75  70  84 SE3       30.09R
BELLOWS*       NOT AVBL
KAHUKU*        NOT AVBL
WHEELER*       NOT AVBL
WAIANAE HARBOR NOT AVBL
DILLINGHAM*      N/A     77  70  78 E3          N/A
KAHUKU TRN*      N/A     75  72  88 E9G18       N/A
KAWAILOA*      NOT AVBL
KII*             N/A     79  73  83 E15G21      N/A
MAKUA RANGE*     N/A     79  68  69 E5          N/A
OAHU FOREST NW NOT AVBL
SCHOFIELD BRK*   N/A     73  70  88 W1          N/A
SCHOFIELD S*   NOT AVBL
WAIANAE VLY*   NOT AVBL
KUAOKALA*      NOT AVBL
HONOULIUULI*   NOT AVBL
MOKUOLOE IS*     N/A    N/A N/A N/A MISG        N/A
PALEHUA*       NOT AVBL
WAIAWA PHB*    NOT AVBL
$$

HIZ012>013-230900-
MOLOKAI-

CITY           SKY/WX    TMP DP  RH WIND       PRES   REMARKS
MOLOKAI AIRPT  PTCLDY    75  73  93 NE8       30.07R
KALAUPAPA      NOT AVBL
MAKAPULAPAI*   NOT AVBL
MOLOKAI 1*     NOT AVBL
PUU ALII*      NOT AVBL
$$

HIZ016-230900-
KAHOOLAWE-

CITY           SKY/WX    TMP DP  RH WIND       PRES   REMARKS
KAHOOLAWE*     NOT AVBL
HAKIOAWA*      NOT AVBL
HONOKANAIA*      N/A     77  70  78 NE15G28   30.06R
KANELOA*         N/A     73  70  88 NE16G26   30.17R
KEALIALALO*    NOT AVBL
LUA MAKIKA*    NOT AVBL
$$

HIZ014>015-230900-
LANAI-

CITY           SKY/WX    TMP DP  RH WIND       PRES   REMARKS
LANAI CITY     FAIR      73  72  97 NE10      30.11S
LANAI 1*       NOT AVBL
$$

HIZ017>028-230900-
MAUI-

CITY           SKY/WX    TMP DP  RH WIND       PRES   REMARKS
KAHULUI        CLOUDY    77  69  76 E13       30.06R
KAPALUA-W MAUI NOT AVBL
HANA AIRPORT   CLOUDY    75  72  88 SE1       30.12S
HANA*          NOT AVBL
HALEAKALA SUMM   N/A     48  41  76 NE14        N/A
MAALAEA BAY*   NOT AVBL
HALEAKALA*     NOT AVBL
KAUPO GAP*     NOT AVBL
KULA 1*          N/A     55  54  97 SE3         N/A
$$

HIZ023>026-230900-
BIG ISLAND OF HAWAII COAST AND LOWER SLOPES-

CITY           SKY/WX    TMP DP  RH WIND       PRES   REMARKS
KAILUA KONA    CLOUDY    80  72  76 CALM      30.01R
HILO           LGT RAIN  75  73  93 W5        30.08S
HONOKAA*       NOT AVBL
KAWAIHAE MWT*  NOT AVBL
KAWAIHAE*        N/A     81 N/A N/A W2          N/A
SOUTH POINT*   NOT AVBL
UPOLU AIRPORT* NOT AVBL
KAMUELA*       FOG       66  66 100 NE18      30.16S VSB 3/4
HAKALAU*         N/A     50  47  90 SW3         N/A
KALOKO-HONOKO* NOT AVBL
PALI 2*          N/A     66  64  94 NE9G16      N/A
KEALAKOMO*       N/A     77  70  78 NE12G21     N/A
KAUPULEHU*     NOT AVBL
KAPAPALA*        N/A     70  67  91 CALM        N/A
LOWER KAHUKU*  NOT AVBL
PUHE CS*       NOT AVBL
PUHO CS*       NOT AVBL
PTA KEAMUKU*     N/A     64  63  94 E6          N/A
WAIKOLOA*      NOT AVBL
$$

HIZ027>028-230900-
BIG ISLAND OF HAWAII INTERIOR AND SUMMMITS-

CITY           SKY/WX    TMP DP  RH WIND       PRES   REMARKS
BRADSHAW FIELD PTCLDY    60  55  86 SE7       30.41R
MK VISITOR CEN NOT AVBL
MAUNA KEA*       N/A     37  34  87 CALM        N/A
MAUNA LOA*     NOT AVBL
MAUNA LOA 1*   NOT AVBL
PTA KIPUKA*      N/A     61  59  94 S3          N/A
PTA RANGE 17*    N/A     63  59  88 E12G18      N/A
PTA WEST*        N/A     63  63 100 CALM        N/A
NENE CABIN*    NOT AVBL
AHUMOA*        NOT AVBL
PTA PORTABLE*  NOT AVBL
PUU MALI*      NOT AVBL
$$

HIC003-230900-
NORTHWEST ISLANDS-

CITY           SKY/WX    TMP DP  RH WIND       PRES   REMARKS
MIDWAY ISLAND  PTCLDY    79  72  78 E10       30.11R
MIDWAY NOS*    NOT AVBL
FRENCH FRIGATE NOT AVBL
$$

PHZ110>124-180-230900-
BUOY REPORTS

STATION/POSITION TIME  TEMP    WIND        PRES    WAVE   SWELL
                       AIR SEA DIR/SP/G            HT/PER HT/DIR
                 (UTC) (F)     (DEG/KT/KT) (MB)    (FT/S) (FT/D)
BUOY 51001       NOT AVBL
BUOY 51101       0800   80 80  120/ 14/ 16 1018.3R   6/ 9   5/120
BUOY 51100       0700   77 78   90/ 17/ 21 1019.1R
BUOY 51003       0700   81 81  100/  8/ 12 1016.4R   5/ 8   5
BUOY 51004       0723   78 80   70/ 17/ 19 1016.5R   6/ 8   5/ 90
BARBERS PT BUOY  NOT AVBL
WAIMEA BAY BUOY  0800      80                N/A     3/ 8
KAILUA BAY BUOY  0800      80                N/A     7/ 8
LANAI BUOY       0800      80                N/A     3/13   2/190
BARBERS PT 2     0800      81                N/A     5/ 9   2/170
PAUWELA MAUI     0800      79                N/A     6/ 8
HILO             NOT AVBL
KANEOHE BAY BUOY 0800      79                N/A     6/ 8
HANALEI KAUAI    NOT AVBL
KAHULUI HARBOR   0800   77 80   60/ 14/ 19 1017.6R
HONOLULU HARBOR  0800   80      80/  3/  8 1018.3R
KILO NALU        NOT AVBL
HILO HARBOR      0800   75     260/  7/  9 1018.0R
MOKUOLOE         0800      82              1018.6R
NAWILIWILI       0800      81                N/A
WHOTS BUOY       NOT AVBL
BUOY 51028       NOT AVBL
$$

......................KEY........................................
  SKY/WX - SKY CONDITIONS/PRESENT WEATHER
  TMP    - TEMPERATURE IN FAHRENHEIT
  DWPT   - DEWPOINT IN FAHRENHEIT
  RH     - RELATIVE HUMIDITY IN PERCENT
  WIND   - DIRECTION AND SPEED /MPH FOR ISLANDS...KTS FOR BUOYS/
  PRES   - MEAN SEA LEVEL PRESSURE IN INCHES OF HG
  VSB    - VISIBILITY IN MILES
  HX     - HEAT INDEX
  WCI    - WIND CHILL INDEX
  VRB    - VARIABLE WIND DIRECTION
  N/A    - NOT AVAILABLE


USA.gov is the U.S. government's official web portal to all federal, state and local government web resources and services.